TimeCST,TemperatureF,Dew PointF,Humidity,Sea Level PressureIn,VisibilityMPH,Wind Direction,Wind SpeedMPH,Gust SpeedMPH,PrecipitationIn,Events,Conditions,WindDirDegrees,DateUTC
12:53 AM,-9999,-9999,N/A,-9999,-9999.0,North,-9999.0,-,N/A,Rain,Rain,0,2013-11-05 06:53:00
1:53 AM,-9999,-9999,N/A,-9999,7.0,SE,11.5,-,N/A,,Overcast,140,2013-11-05 07:53:00
2:53 AM,-9999,-9999,N/A,-9999,-9999.0,North,-9999.0,-,N/A,Rain,Rain,0,2013-11-05 08:53:00
3:53 AM,-9999,-9999,N/A,-9999,-9999.0,North,-9999.0,-,N/A,Rain,Rain,0,2013-11-05 09:53:00
4:53 AM,-9999,-9999,N/A,-9999,4.0,SE,11.5,-,N/A,,Overcast,130,2013-11-05 10:53:00
5:53 AM,-9999,-9999,N/A,-9999,4.0,SE,11.5,-,N/A,Rain,Light Rain,130,2013-11-05 11:53:00
6:00 AM,-9999,-9999,N/A,-9999,4.0,SE,11.5,-,N/A,,Overcast,130,2013-11-05 12:00:00
6:53 AM,-9999,-9999,N/A,30.00,3.0,SE,11.5,-,N/A,,Overcast,130,2013-11-05 12:53:00
7:00 AM,-9999,-9999,N/A,-9999,3.0,SE,11.5,-,N/A,,Overcast,130,2013-11-05 13:00:00
7:53 AM,-9999,-9999,N/A,30.02,3.0,SE,11.5,-,N/A,,Overcast,130,2013-11-05 13:53:00
8:00 AM,-9999,-9999,N/A,-9999,3.0,SE,11.5,-,N/A,,Overcast,130,2013-11-05 14:00:00
8:53 AM,-9999,-9999,N/A,30.02,3.0,SE,16.1,-,N/A,,Overcast,130,2013-11-05 14:53:00
9:53 AM,-9999,-9999,N/A,30.03,4.0,SSE,17.3,-,N/A,,Overcast,150,2013-11-05 15:53:00
10:00 AM,-9999,-9999,N/A,-9999,4.0,SSE,17.3,-,N/A,,Overcast,150,2013-11-05 16:00:00
10:53 AM,-9999,-9999,N/A,30.02,2.5,SE,16.1,-,N/A,,Overcast,140,2013-11-05 16:53:00
11:53 AM,-9999,-9999,N/A,29.99,4.0,SSE,12.7,-,N/A,,Overcast,150,2013-11-05 17:53:00
12:53 PM,-9999,-9999,N/A,29.97,10.0,SSE,12.7,-,N/A,,Overcast,160,2013-11-05 18:53:00
1:53 PM,-9999,-9999,N/A,29.94,10.0,SE,17.3,-,N/A,,Overcast,140,2013-11-05 19:53:00
2:00 PM,-9999,-9999,N/A,-9999,10.0,SE,17.3,-,N/A,,Overcast,140,2013-11-05 20:00:00
2:53 PM,-9999,-9999,N/A,29.94,4.0,SSE,15.0,-,N/A,,Overcast,160,2013-11-05 20:53:00
3:53 PM,-9999,-9999,N/A,29.92,6.0,SE,17.3,-,N/A,,Overcast,140,2013-11-05 21:53:00
4:00 PM,-9999,-9999,N/A,-9999,6.0,SE,17.3,-,N/A,,Overcast,140,2013-11-05 22:00:00
4:20 PM,-9999,-9999,N/A,-9999,6.0,SE,17.3,-,N/A,,Overcast,140,2013-11-05 22:20:00
4:53 PM,-9999,-9999,N/A,29.93,6.0,SE,17.3,-,N/A,,Overcast,140,2013-11-05 22:53:00
5:19 PM,-9999,-9999,N/A,-9999,6.0,SE,9.2,-,N/A,,Haze,130,2013-11-05 23:19:00
5:53 PM,-9999,-9999,N/A,29.93,6.0,ESE,8.1,-,N/A,,Haze,110,2013-11-05 23:53:00
6:00 PM,-9999,-9999,N/A,-9999,6.0,ESE,8.1,-,N/A,,Haze,110,2013-11-06 00:00:00
6:53 PM,-9999,-9999,N/A,-9999,8.0,SE,10.4,-,N/A,,Overcast,140,2013-11-06 00:53:00
7:00 PM,-9999,-9999,N/A,-9999,8.0,SE,10.4,-,N/A,,Overcast,140,2013-11-06 01:00:00
7:53 PM,-9999,-9999,N/A,29.94,8.0,SSE,12.7,-,N/A,,Overcast,160,2013-11-06 01:53:00
8:00 PM,-9999,-9999,N/A,-9999,-9999.0,North,-9999.0,-,N/A,,Unknown,0,2013-11-06 02:00:00
8:25 PM,-9999,-9999,N/A,-9999,8.0,SSE,12.7,-,N/A,,Overcast,160,2013-11-06 02:25:00
8:53 PM,-9999,-9999,N/A,-9999,8.0,SSE,12.7,-,N/A,,Overcast,160,2013-11-06 02:53:00
9:53 PM,-9999,-9999,N/A,-9999,10.0,South,15.0,-,N/A,,Overcast,170,2013-11-06 03:53:00
10:53 PM,-9999,-9999,N/A,29.97,10.0,South,13.8,-,N/A,,Overcast,170,2013-11-06 04:53:00
11:00 PM,-9999,-9999,N/A,-9999,10.0,South,17.3,-,N/A,,Overcast,180,2013-11-06 05:00:00
11:53 PM,-9999,-9999,N/A,29.97,7.0,South,13.8,-,N/A,,Overcast,190,2013-11-06 05:53:00